Location: Caltech
(34.1382°N, 118.1253°W)
Time: 20:36:27
(UTC-07:00)

ITAMSAT 1 - Visible Passes

Search period start: 01 July 2015 00:00
Search period end: 11 July 2015 00:00
Orbit: 785 x 796 km, 98.7° (Epoch: 01 July)

Date Brightness Start Highest point End Pass type
(mag) Time Alt. Az. Time Alt. Az. Time Alt. Az.
01 Jul 8.7 02:46:00 10° NNE 02:50:44 35° E 02:51:56 32° SE visible
01 Jul 9.0 04:25:56 10° NNW 04:30:04 23° WNW 04:32:40 16° WSW visible
02 Jul 9.6 02:17:50 10° NE 02:21:14 18° E 02:22:17 17° ESE visible
02 Jul 8.1 03:56:02 10° N 04:01:00 44° WNW 04:03:02 30° WSW visible
03 Jul 7.6 03:26:35 10° NNE 03:31:51 88° W 03:33:24 47° SSW visible
04 Jul 8.3 02:57:33 10° NNE 03:02:34 47° E 03:03:46 40° SE visible
04 Jul 9.3 04:38:10 10° NNW 04:41:44 18° WNW 04:44:30 12° WSW visible
05 Jul 9.3 02:29:03 10° NE 02:33:08 24° E 02:34:07 23° ESE visible
05 Jul 8.5 04:07:59 10° N 04:12:42 34° WNW 04:14:52 24° WSW visible
06 Jul 10.1 02:02:02 10° ENE 02:03:31 11° E 02:04:29 11° E visible
06 Jul 7.7 03:38:24 10° N 03:43:35 67° WNW 03:45:13 43° SW visible
07 Jul 7.9 03:09:12 10° NNE 03:14:21 62° E 03:15:35 48° SSE visible
07 Jul 9.6 04:50:38 10° NNW 04:53:24 14° WNW 04:55:53 10° W visible
08 Jul 8.9 02:40:26 10° NE 02:44:59 31° E 02:45:56 29° ESE visible
08 Jul 8.9 04:20:02 10° NNW 04:24:24 27° WNW 04:26:40 19° WSW visible
09 Jul 9.8 02:12:32 10° ENE 02:15:26 16° E 02:16:17 15° ESE visible
09 Jul 7.9 03:50:15 10° N 03:55:18 51° WNW 03:57:01 36° SW visible
10 Jul 7.6 03:20:54 10° NNE 03:26:08 81° ESE 03:27:23 53° S visible
10 Jul 9.8 05:03:49 10° NW 05:05:02 11° WNW 05:05:53 10° WNW visible
